Hourly Data Report for October 06, 2017

All times are specified in Local Standard Time (LST). Add 1 hour to adjust for Daylight Saving Time where and when it is observed.

POND INLET A
NUNAVUT

72°41'22.000" N
77°58'08.000" W
61.60 m
2403206
71095
YIO

Download Data

Hourly Data (October 2017)
Hourly Data Report for October 6, 2017
Temp Definition
°C
Dew Point Temp Definition
°C
Rel Hum Definition
%
Wind Dir Definition
10's deg

Wind Spd Definition
km/h
Visibility Definition
km
Stn Press Definition
kPa
Hmdx Definition


Wind Chill Definition


Weather Definition


TIME
00:00 Legend Double Dagger -2.5 -7.8 67 11 15 16.1 100.00   -7 LegendNANA
01:00 Legend Double Dagger -5.4 -9.3 74 10 5 16.1 99.96   -8 LegendNANA
02:00 Legend Double Dagger -6.0 -10.1 73 14 15 16.1 99.95   -12 LegendNANA
03:00 Legend Double Dagger -6.1 -9.7 76 15 17 16.1 99.92   -12 LegendNANA
04:00 Legend Double Dagger -2.5 -6.9 72 5 21 16.1 99.90   -9 LegendNANA
05:00 Legend Double Dagger -2.4 -6.9 71 5 22 16.1 99.91   -9 LegendNANA
06:00 Legend Double Dagger -5.8 -9.0 78 10 11 16.1 99.94   -11 LegendNANA
07:00 Legend Double Dagger -6.4 -10.8 71 12 9 16.1 99.92   -11 LegendNANA
08:00 Legend Double Dagger -3.9 -9.6 65 11 11 16.1 99.90   -8 LegendNANA
09:00 Legend Double Dagger -2.2 -8.5 62 7 22 16.1 99.87   -8 LegendNANA
10:00 Legend Double Dagger -3.1 -10.0 59 14 9 16.1 99.86   -7 LegendNANA
11:00 Legend Double Dagger -2.9 -9.6 60 11 17 16.1 99.84   -8 LegendNANA
12:00 Legend Double Dagger -1.5 -7.6 64 7 18 16.1 99.80   -7 LegendNANA
13:00 Legend Double Dagger -1.7 -8.3 61 8 11 16.1 99.81   -6 LegendNANA
14:00 Legend Double Dagger -2.2 -8.1 64 6 8 16.1 99.79   -5 LegendNANA
15:00 Legend Double Dagger -2.5 -7.8 67 7 18 16.1 99.77   -8 LegendNANA
16:00 Legend Double Dagger -2.6 -7.2 71 6 15 16.1 99.77   -8 LegendNANA
17:00 Legend Double Dagger -4.2 -8.8 71 9 8 16.1 99.77   -8 LegendNANA
18:00 Legend Double Dagger -8.6 -12.7 72 14 13 16.1 99.75   -15 LegendNANA
19:00 Legend Double Dagger -8.2 -11.9 75 15 15 16.1 99.75   -15 LegendNANA
20:00 Legend Double Dagger -8.8 -11.0 84 15 9 16.1 99.75   -13 LegendNANA
21:00 Legend Double Dagger -8.3 -10.9 82 18 9 16.1 99.75   -13 LegendNANA
22:00 Legend Double Dagger -9.2 -12.2 79 13 5 16.1 99.74   -12 LegendNANA
23:00 Legend Double Dagger -8.9 -11.2 84 14 15 16.1 99.73   -15 LegendNANA

Notes on Data Quality.

Legend

  • E = Estimated
  • M = Missing
  • NA = Not Available
  • ‡ = Partner data that is not subject to review by the National Climate Archives
Date modified: